Regional Weather Roundup
Issued by NWS

Home | Current Version | Previous Version | Graphics & Text | Print | Product List | Glossary On
Versions: 1 2 3 4 5 6 7 8 9 10 11 12 13 14 15 16 17 18 19 20 21 22 23 24 25 26 27 28 29 30 31 32 33 34 35 36 37 38 39 40 41 42 43 44 45 46 47 48 49 50
000
ASUS43 KMKX 250521
RWRWI

WISCONSIN REGIONAL WEATHER ROUNDUP
NATIONAL WEATHER SERVICE MILWAUKEE/SULLIVAN WI
1200 AM CDT SUN SEP 25 2016

NOTE: "FAIR" INDICATES FEW OR NO CLOUDS BELOW 12,000 FEET WITH NO
SIGNIFICANT WEATHER AND/OR OBSTRUCTIONS TO VISIBILITY.

WIZ001-002-006>008-014>016-023>028-250600-
NORTHWEST WISCONSIN

CITY           SKY/WX    TMP DP  RH WIND       PRES   REMARKS
SUPERIOR ARPT  CLOUDY    59  58  98 E5        30.01F
ASHLAND        PTCLDY    62  56  80 S5        30.05S
HAYWARD        CLOUDY    63  57  81 S13G22    30.06S
SIREN          CLOUDY    64  60  84 SE10      30.02S
CUMBERLAND     CLOUDY    61  59  94 SE14      30.05F
RICE LAKE      CLOUDY    64  58  83 SE12G18   30.07S
CHETEK         NOT AVBL
LADYSMITH      PTCLDY    62  56  83 SE7       30.11S
EAU CLAIRE     PTCLDY    63  59  87 SE7       30.05F
MENOMONIE      CLOUDY    65  62  88 E12       30.04F
NEW RICHMOND   CLOUDY    64  62  93 SE12G17   30.02S
OSCEOLA        CLOUDY    65  65 100 SE13G20   30.03R
$$

WIZ003>005-009-010-017-018-250600-
NORTH CENTRAL WISCONSIN

CITY           SKY/WX    TMP DP  RH WIND       PRES   REMARKS
MANITOWISH WTR NOT AVBL
ARBOR VITAE    CLOUDY    59  54  82 SE9       30.13S
WOODRUFF       CLOUDY    59  54  82 SE9       30.13S
RHINELANDER    CLOUDY    57  53  86 SE8       30.16S
EAGLE RIVER    PTCLDY    56  49  77 SE3       30.14F
LAND O LAKES   CLOUDY    57  51  80 SE9       30.15F
PHILLIPS       CLOUDY    59  55  85 SE8       30.10F
TOMAHAWK       CLOUDY    58  52  81 SE7       30.14F
MEDFORD        MOCLDY    58  58 100 SE7       30.12S
MERRILL        CLOUDY    59  55  86 SE5       30.15S
$$

WIZ029-030-035-036-043>047-250600-
CENTRAL WISCONSIN

CITY           SKY/WX    TMP DP  RH WIND       PRES   REMARKS
WAUSAU         CLOUDY    59  54  83 SE8       30.14S
MOSINEE        CLOUDY    59  55  88 SE7       30.16S
MARSHFIELD     CLOUDY    60  56  86 SE10      30.12F
STEVENS POINT  PTCLDY    57  56  96 E3        30.15F
WAUPACA        PTCLDY    60  58  94 CALM      30.16S
WAUTOMA        CLOUDY    59  57  93 CALM      30.15F
WISC RAPIDS    PTCLDY    60  58  92 SE6       30.15R
CAMP DOUGLAS   CLOUDY    62  61  94 SE10      30.11F
$$

WIZ011>013-019>022-031-037>040-048>050-250600-
NORTHEAST WISCONSIN

CITY           SKY/WX    TMP DP  RH WIND       PRES   REMARKS
ANTIGO         CLOUDY    56  53  91 CALM      30.17S
SHAWANO        CLOUDY    60  55  83 CALM      30.17F
OCONTO         NOT AVBL
STURGEON BAY   PTCLDY    57  53  86 SE5       30.17F
GREEN BAY      MOCLDY    60  56  86 E5        30.16F
MANITOWOC      CLOUDY    60  57  89 CALM      30.16F
APPLETON       MOCLDY    59  52  77 E3        30.15S
CLINTONVILLE   NOT AVBL
OSHKOSH        CLEAR     61  56  83 E6        30.14F
$$

WIZ032>034-041-042-053>061-250600-
SOUTHWEST WISCONSIN

CITY           SKY/WX    TMP DP  RH WIND       PRES   REMARKS
LA CROSSE      CLOUDY    66  62  87 E7        30.06F
SPARTA         CLOUDY    61  60  97 E7        30.10S
VIROQUA        CLOUDY    62  62 100 SE9       30.09F
BOSCOBEL       CLOUDY    64  62  93 N5        30.09F
PRAIRIE DU CHI PTCLDY    65  62  90 E5        30.06F
PLATTEVILLE    CLOUDY    64  64 100 E13       30.10F
$$

WIZ056-057-062-063-064-067-068-250600-
SOUTH CENTRAL WISCONSIN

CITY           SKY/WX    TMP DP  RH WIND       PRES   REMARKS
REEDSBURG      NOT AVBL
BARABOO/DELLS  PTCLDY    61  59  91 E6        30.13S
LONE ROCK      CLOUDY    63  61  93 E9        30.11F
MINERAL POINT  CLOUDY    64  63  94 E10G16    30.10F
MADISON        CLEAR     61  59  93 SE3       30.13R
MIDDLETON      CLEAR     64  64  99 SE7       30.13S
WATERTOWN      CLEAR     59  59 100 E5        30.13F
MONROE         CLEAR     61  61 100 E6        30.12S FOG
JANESVILLE     CLEAR     63  61  94 CALM      30.12S
$$

WIZ051-052-058>065-066-070>072-250600-
SOUTHEAST WISCONSIN

CITY           SKY/WX    TMP DP  RH WIND       PRES   REMARKS
MILWAUKEE      CLEAR     66  61  84 SE9       30.14F
WAUKESHA       CLEAR     61  59  94 E8        30.15F
MILWAUKEE/TIMM CLEAR     64  55  72 CALM      30.15F
RACINE         CLEAR     68  62  81 SE9       30.16S
BURLINGTON     CLEAR     57  56  97 CALM      30.14S
KENOSHA        CLEAR     67  63  87 E9        30.14F
FOND DU LAC    CLEAR     59  56  89 CALM      30.15F
SHEBOYGAN      CLOUDY    64  58  80 SE3       30.16F
WEST BEND      CLEAR     59  55  88 E3        30.15F
JUNEAU         CLEAR     60  57  91 E6        30.15S
$$

LSZ147-162-250600-
LAKE SUPERIOR

STATION/POSITION TIME  TEMP    WIND        PRES    WAVE
                       AIR SEA DIR/SP/G            HT/PER
                 (UTC) (F)     (DEG/KT/KT) (MB)    (FT/S)
W MID LAKE BUOY  0450   64 61  140/ 14/ 16 1017.3F   2/ 4
DEVILS ISLAND    0500   64     140/  9/ 10 1017.5R
SAXON HARBOR     0400   65     190/  7/ 15 1016.9
$$

LMZ867-665-643>646-250600-
LAKE MICHIGAN

STATION/POSITION TIME  TEMP    WIND        PRES    WAVE
                       AIR SEA DIR/SP/G            HT/PER
                 (UTC) (F)     (DEG/KT/KT) (MB)    (FT/S)
CHAMBERS ISLAND  0400   62      60/  3/  5 1021.7F
S GREEN BAY BUOY 0500   63 66   90/  6/  6 1021.0F
N MID LAKE BUOY  0450   65 67  150/ 14/ 16 1021.6F   2/ 4
NORTHPORT PIER   0300   65     120/  9/ 12 1022.4F
KEWAUNEE LAKESHO 0500   65     120/  6/  7 1021.0F
SHEBOYGAN LAKESH 0500   66     130/ 11/ 12 1020.8F
PORT WASHINGTON  0440   63      40/  3/  4 1021.7F
ATWATER BUOY     0500   65 62  130/  6/ 10 1020.7F
MILWAUKEE LAKESH 0410   64      90/  5/  5   N/A
S MID LAKE BUOY  0450   69 72  110/ 17/ 19 1020.2F   3/ 4
KENOSHA   LAKESH 0500   68     130/ 14/ 16 1020.3S
$$

TC  - TEMPERATURE IN CELSIUS
VSB - VISIBILITY IN STATUTE MILES
WCI - WIND CHILL INDEX
HX  - HEAT INDEX





USA.gov is the U.S. government's official web portal to all federal, state and local government web resources and services.